Torna al catalogo

STARLINK-37910

AttivoComunicazioniVLEO
NORAD 69961·PAYLOAD·🇺🇸 United States

Lanciato Jul 9, 2026 da Cape Canaveral Space Force Station

Loading…

Prossimi Passaggi (prossime 24 ore)

TLE

AggiornatoSource: CelesTrak SupGP

Epoca: Sep 14, 2026, 21:29 UTC

1 69961C 26157U   26257.89562500 -.00006863  00000+0 -20278-3 0  2572
2 69961  53.1583   0.0887 0001240  81.7450 154.9778 15.34391191    12

Traccia STARLINK-37910 in tempo reale con AllMySat

Download on the App Store